Cleveland, OH

1:58 PM EST on January 21, 2018 (GMT -0500)
Cleveland-Hopkins International

Weather History for KCLE - February, 2014

Change the Weather History Date:

Sunday, February 9, 2014

  Actual Average Record
Temperature  
Mean Temperature 21 °F 30 °F  
Max Temperature 25 °F 36 °F 63 °F (2001)
Min Temperature 17 °F 23 °F -14 °F (1899)
Degree Days  
Heating Degree Days 44 36  
Month to date heating degree days 408 324  
Since 1 July heating degree days 3906 3576  
Cooling Degree Days 0 0  
Month to date cooling degree days 0 0  
Year to date cooling degree days 0 0  
Moisture  
Dew Point 14 °F    
Average Humidity 73    
Maximum Humidity 84    
Minimum Humidity 62    
Precipitation  
Precipitation 0.15 in 0.08 in 0.65 in (1959)
Month to date precipitation 1.48 0.72  
Year to date precipitation 3.48 3.44  
Snow  
Snow 2.60 in 0.60 in - ()
Month to date snowfall 11.6 5.0  
Since 1 July snowfall 57.5 42.3  
Snow Depth 9.00 in    
Sea Level Pressure  
Sea Level Pressure 30.11 in    
Wind  
Wind Speed 9 mph (SW)    
Max Wind Speed 22 mph    
Max Gust Speed 26 mph    
Visibility 4 miles    
Events Fog , Snow    
T = Trace of Precipitation, MM = Missing Value Source: NWS Daily Summary

Daily Weather History Graph

Daily Weather History Graph

Search for Another Location

Airport or City:

Trip Planner

Search our weather history database for the weather conditions in past years. The results will help you decide how hot, cold, wet, or windy it might be!

Date:

Astronomy

Feb. 09, 2014 Rise Set
Actual Time 7:30 AM EST 5:53 PM EST
Civil Twilight 7:01 AM EST 6:22 PM EST
Nautical Twilight 6:28 AM EST 6:55 PM EST
Astronomical Twilight 5:56 AM EST 7:27 PM EST
Moon 1:31 PM EST (2/9) 3:35 AM EST (2/9)
Length of Visible Light 11h 21m
Length of Day
10h 23m
Waxing Gibbous, 77% of the Moon is Illuminated
Feb 9
Waxing Gibbous
Feb 14
Full
Feb 22
Last Quarter
Mar 1
New
Mar 8
First Quarter

Hourly Weather History & Observations

Time (EST) Temp. Windchill Dew Point Humidity Pressure Visibility Wind Dir Wind Speed Gust Speed Precip Events Conditions
12:02 AM 17.1 °F 11.7 °F 12.0 °F 81% 30.18 in 3.0 mi South 3.5 mph - 0.00 in Snow Light Snow
12:13 AM 17.1 °F - 12.0 °F 81% 30.18 in 3.0 mi Calm Calm - 0.00 in Snow Light Snow
12:51 AM 17.1 °F 11.7 °F 12.0 °F 81% 30.22 in 5.0 mi SE 3.5 mph - 0.00 in Snow Light Snow
1:12 AM 17.1 °F - 12.0 °F 81% 30.17 in 5.0 mi Calm Calm - 0.00 in Snow Light Snow
1:43 AM 17.1 °F 11.7 °F 12.0 °F 81% 30.16 in 5.0 mi SSE 3.5 mph - 0.00 in Snow Light Snow
1:51 AM 17.1 °F 11.7 °F 12.0 °F 81% 30.19 in 5.0 mi SSE 3.5 mph - 0.00 in Snow Light Snow
2:51 AM 18.0 °F 12.7 °F 12.0 °F 78% 30.18 in 5.0 mi SSE 3.5 mph - 0.00 in Snow Light Snow
3:51 AM 18.0 °F 9.8 °F 12.9 °F 81% 30.15 in 4.0 mi SSE 5.8 mph - 0.00 in Snow Light Snow
4:48 AM 19.4 °F 12.8 °F 12.2 °F 74% 30.11 in 7.0 mi South 4.6 mph - 0.00 in Snow Light Snow
4:51 AM 19.0 °F 12.3 °F 14.0 °F 81% 30.15 in 6.0 mi South 4.6 mph - 0.00 in Snow Light Snow
5:15 AM 19.0 °F 13.9 °F 14.0 °F 81% 30.12 in 1.0 mi South 3.5 mph - 0.01 in Snow Light Snow
5:51 AM 19.9 °F 13.4 °F 15.1 °F 81% 30.15 in 1.2 mi South 4.6 mph - 0.02 in Snow Light Snow
6:11 AM 19.9 °F 12.1 °F 16.0 °F 85% 30.10 in 1.2 mi South 5.8 mph - 0.01 in Snow Light Snow
6:34 AM 19.9 °F 12.1 °F 16.0 °F 85% 30.09 in 1.8 mi South 5.8 mph - 0.02 in Snow Light Snow
6:51 AM 19.9 °F 13.4 °F 16.0 °F 85% 30.12 in 1.8 mi SSW 4.6 mph - 0.02 in Snow Light Snow
7:38 AM 19.9 °F 13.4 °F 16.0 °F 85% 30.07 in 0.8 mi South 4.6 mph - 0.02 in Snow Light Snow
7:51 AM 21.0 °F 14.6 °F 16.0 °F 81% 30.11 in 0.8 mi SSE 4.6 mph - 0.02 in Snow Light Snow
7:59 AM 21.0 °F 13.4 °F 16.0 °F 81% 30.06 in 1.0 mi SSE 5.8 mph - 0.00 in Snow Light Snow
8:17 AM 21.0 °F 14.6 °F 16.0 °F 81% 30.06 in 0.8 mi SSE 4.6 mph - 0.01 in Snow Light Snow
8:51 AM 21.0 °F 16.2 °F 17.1 °F 85% 30.09 in 1.8 mi South 3.5 mph - 0.01 in Snow Light Snow
9:10 AM 21.0 °F 16.2 °F 17.1 °F 85% 30.06 in 0.8 mi WSW 3.5 mph - 0.01 in Snow Light Snow
9:29 AM 21.9 °F 17.2 °F 18.0 °F 85% 30.05 in 0.5 mi SSW 3.5 mph - 0.02 in Fog , Snow Snow
9:51 AM 21.9 °F 14.5 °F 17.1 °F 82% 30.07 in 1.2 mi SSW 5.8 mph - 0.02 in Snow Light Snow
10:37 AM 21.9 °F 15.7 °F 18.0 °F 85% 30.03 in 0.5 mi SSW 4.6 mph - 0.02 in Fog , Snow Light Snow
10:51 AM 23.0 °F 15.8 °F 18.0 °F 81% 30.07 in 0.8 mi WSW 5.8 mph - 0.03 in Snow Light Snow
11:11 AM 23.0 °F 15.8 °F 18.0 °F 81% 30.02 in 1.0 mi SW 5.8 mph - 0.01 in Snow Light Snow
11:34 AM 23.0 °F 14.7 °F 18.0 °F 81% 30.02 in 0.8 mi WSW 6.9 mph - 0.01 in Snow Light Snow
11:51 AM 24.1 °F 15.2 °F 19.0 °F 81% 30.05 in 0.8 mi WSW 8.1 mph - 0.02 in Snow Light Snow
12:12 PM 24.1 °F 14.4 °F 19.0 °F 81% 30.01 in 2.0 mi West 9.2 mph - 0.00 in Snow Light Snow
12:16 PM 24.1 °F 14.4 °F 18.0 °F 77% 30.01 in 2.0 mi WSW 9.2 mph - 0.00 in Snow Light Snow
12:21 PM 24.1 °F 14.4 °F 19.0 °F 81% 30.00 in 1.5 mi WSW 9.2 mph - 0.00 in Snow Light Snow
12:51 PM 23.0 °F 11.1 °F 18.0 °F 81% 30.04 in 1.0 mi WNW 12.7 mph - 0.00 in Snow Light Snow
1:02 PM 23.0 °F 9.6 °F 16.0 °F 74% 30.01 in 3.0 mi WNW 16.1 mph - 0.00 in Snow Light Snow
1:51 PM 21.9 °F 7.3 °F 14.0 °F 72% 30.05 in 10.0 mi West 18.4 mph 25.3 mph 0.01 in   Overcast
2:51 PM 21.0 °F 5.7 °F 12.9 °F 71% 30.07 in 8.0 mi West 19.6 mph 26.5 mph 0.00 in Snow Light Snow
3:51 PM 21.0 °F 7.6 °F 10.9 °F 65% 30.09 in 9.0 mi West 15.0 mph - 0.00 in Snow Light Snow
4:51 PM 19.9 °F 7.9 °F 10.9 °F 68% 30.11 in 10.0 mi WNW 11.5 mph - 0.00 in   Mostly Cloudy
5:51 PM 19.0 °F 9.0 °F 10.0 °F 68% 30.14 in 10.0 mi West 8.1 mph - N/A   Scattered Clouds
6:51 PM 18.0 °F 4.8 °F 10.0 °F 71% 30.18 in 10.0 mi WSW 12.7 mph - N/A   Overcast
7:51 PM 19.0 °F 7.5 °F 10.9 °F 71% 30.19 in 8.0 mi WSW 10.4 mph - 0.00 in Snow Light Snow
8:51 PM 19.0 °F 8.2 °F 10.9 °F 71% 30.20 in 7.0 mi WSW 9.2 mph - 0.00 in Snow Light Snow
9:51 PM 19.0 °F 8.2 °F 10.9 °F 71% 30.22 in 8.0 mi SW 9.2 mph - 0.00 in Snow Light Snow
10:51 PM 18.0 °F 6.1 °F 10.9 °F 74% 30.22 in 9.0 mi WSW 10.4 mph - 0.00 in Snow Light Snow
11:51 PM 18.0 °F 5.4 °F 10.9 °F 74% 30.22 in 6.0 mi WSW 11.5 mph - 0.00 in Snow Light Snow